Change the Weather History Date:

Friday, December 6, 2013

  Actual Average (KGSP) Record (KGSP)
Temperature  
Mean Temperature 70 °F 46 °F  
Max Temperature 77 °F 56 °F 76 °F (1998)
Min Temperature 64 °F 36 °F 16 °F (1905)
Degree Days  
Heating Degree Days 0 19  
Month to date heating degree days 111  
Since 1 July heating degree days 664  
Cooling Degree Days 6 0  
Month to date cooling degree days 0  
Year to date cooling degree days 1715  
Growing Degree Days 20 (Base 50)    
Moisture  
Dew Point 63 °F    
Average Humidity 74    
Maximum Humidity 100    
Minimum Humidity 57    
Precipitation  
Precipitation 0.00 in 0.14 in 2.02 in (1983)
Month to date precipitation 0.86  
Year to date precipitation 43.94  
Snow  
Snow 0.00 in 0.00 in 3.50 in (1901)
Month to date snowfall 0.0  
Since 1 July snowfall 0.1  
Snow Depth -    
Sea Level Pressure  
Sea Level Pressure 30.05 in    
Wind  
Wind Speed 12 mph (SSW)    
Max Wind Speed 22 mph    
Max Gust Speed 29 mph    
Visibility 10 miles    
Events Thunderstorm    
T = Trace of Precipitation, MM = Missing Value Source: NWS Daily Summary

Daily Weather History Graph

Daily Weather History Graph

Search for Another Location

Airport or City:

Trip Planner

Search our weather history database for the weather conditions in past years. The results will help you decide how hot, cold, wet, or windy it might be!

Date:

Astronomy

Dec. 06, 2013 Rise Set
Actual Time 7:20 AM EST 5:17 PM EST
Civil Twilight 6:52 AM EST 5:44 PM EST
Nautical Twilight 6:21 AM EST 6:16 PM EST
Astronomical Twilight 5:51 AM EST 6:46 PM EST
Moon 10:30 AM EST (12/6) 9:40 PM EST (12/6)
Length of Visible Light 10h 51m
Length of Day
9h 56m
Waxing Crescent, 19% of the Moon is Illuminated
Dec 6
Waxing Crescent
Dec 9
First Quarter
Dec 17
Full
Dec 25
Last Quarter
Jan 1
New

Hourly Weather History & Observations

Time (EST) Temp. Dew Point Humidity Pressure Visibility Wind Dir Wind Speed Gust Speed Precip Events Conditions
12:15 AM 68.0 °F - N/A% 30.06 in 10.0 mi SSW 9.2 mph - N/A   Mostly Cloudy
12:35 AM 68.0 °F - N/A% 30.06 in 10.0 mi SSW 9.2 mph 17.3 mph N/A   Mostly Cloudy
12:55 AM 68.0 °F - N/A% 30.06 in 10.0 mi SSW 9.2 mph - N/A   Mostly Cloudy
1:15 AM 68.0 °F - N/A% 30.06 in 10.0 mi SSW 10.4 mph 16.1 mph N/A   Mostly Cloudy
1:35 AM 68.0 °F - N/A% 30.06 in 10.0 mi SSW 10.4 mph - N/A   Mostly Cloudy
1:55 AM 68.0 °F - N/A% 30.05 in 10.0 mi SSW 11.5 mph 17.3 mph N/A   Mostly Cloudy
2:15 AM 68.0 °F - N/A% 30.05 in 10.0 mi SSW 10.4 mph 17.3 mph N/A Thunderstorm Overcast
2:35 AM 68.0 °F - N/A% 30.05 in 10.0 mi SSW 9.2 mph - N/A   Overcast
2:55 AM 68.0 °F - N/A% 30.05 in 10.0 mi SSW 10.4 mph - N/A   Overcast
3:15 AM 68.0 °F - N/A% 30.06 in 10.0 mi SSW 10.4 mph 18.4 mph N/A   Overcast
3:35 AM 68.0 °F - N/A% 30.05 in 10.0 mi SSW 13.8 mph - N/A   Overcast
3:55 AM 68.0 °F - N/A% 30.04 in 10.0 mi SSW 12.7 mph 19.6 mph N/A   Overcast
4:15 AM 68.0 °F - N/A% 30.05 in 10.0 mi SW 10.4 mph 17.3 mph N/A   Overcast
4:35 AM 68.0 °F - N/A% 30.04 in 10.0 mi SSW 13.8 mph 18.4 mph N/A   Mostly Cloudy
4:55 AM 68.0 °F - N/A% 30.05 in 10.0 mi SSW 12.7 mph 18.4 mph N/A   Mostly Cloudy
5:15 AM 68.0 °F - N/A% 30.05 in 10.0 mi SSW 12.7 mph 21.9 mph N/A   Overcast
5:35 AM 68.0 °F - N/A% 30.05 in 10.0 mi SSW 10.4 mph 16.1 mph N/A   Mostly Cloudy
5:55 AM 66.2 °F - N/A% 30.05 in 10.0 mi SSW 10.4 mph - N/A   Mostly Cloudy
6:15 AM 66.2 °F - N/A% 30.05 in 10.0 mi SSW 10.4 mph - N/A   Overcast
6:35 AM 66.2 °F - N/A% 30.06 in 10.0 mi SSW 9.2 mph - N/A   Overcast
6:55 AM 64.4 °F - N/A% 30.06 in 10.0 mi South 10.4 mph - N/A   Overcast
7:15 AM 64.4 °F - N/A% 30.08 in 10.0 mi SSW 9.2 mph 17.3 mph N/A   Overcast
7:35 AM 64.4 °F - N/A% 30.09 in 10.0 mi SSW 6.9 mph - N/A   Overcast
7:55 AM 64.4 °F - N/A% 30.09 in 10.0 mi SSW 8.1 mph - N/A   Overcast
8:15 AM 64.4 °F - N/A% 30.10 in 10.0 mi SSW 10.4 mph - N/A   Overcast
8:35 AM 64.4 °F - N/A% 30.10 in 10.0 mi SSW 9.2 mph - N/A   Overcast
8:55 AM 64.4 °F 64.4 °F 100% 30.11 in 10.0 mi SSW 9.2 mph - N/A   Overcast
9:15 AM 68.0 °F 64.4 °F 88% 30.11 in 10.0 mi SSW 12.7 mph 16.1 mph N/A   Overcast
9:35 AM 66.2 °F 64.4 °F 94% 30.11 in 10.0 mi SSW 12.7 mph - N/A   Overcast
9:55 AM 68.0 °F 62.6 °F 83% 30.11 in 10.0 mi SSW 10.4 mph 17.3 mph N/A   Overcast
10:15 AM 69.8 °F 62.6 °F 78% 30.11 in 10.0 mi SSW 10.4 mph 19.6 mph N/A   Overcast
10:35 AM 69.8 °F 62.6 °F 78% 30.11 in 10.0 mi SSW 18.4 mph 21.9 mph N/A   Overcast
10:55 AM 71.6 °F 62.6 °F 73% 30.10 in 10.0 mi SSW 16.1 mph 25.3 mph N/A   Overcast
11:15 AM 71.6 °F 62.6 °F 73% 30.10 in 10.0 mi SSW 16.1 mph 25.3 mph N/A   Mostly Cloudy
11:35 AM 71.6 °F 62.6 °F 73% 30.09 in 10.0 mi SSW 17.3 mph 28.8 mph N/A   Scattered Clouds
11:55 AM 73.4 °F 62.6 °F 69% 30.09 in 10.0 mi SW 12.7 mph 28.8 mph N/A   Mostly Cloudy
12:15 PM 73.4 °F 62.6 °F 69% 30.08 in 10.0 mi SSW 18.4 mph 21.9 mph N/A   Scattered Clouds
12:35 PM 73.4 °F 60.8 °F 65% 30.06 in 10.0 mi SW 15.0 mph 27.6 mph N/A   Clear
12:55 PM 75.2 °F 60.8 °F 61% 30.06 in 7.0 mi SSW 21.9 mph 25.3 mph N/A   Clear
1:15 PM 73.4 °F 60.8 °F 65% 30.05 in 7.0 mi SSW 16.1 mph 23.0 mph N/A   Scattered Clouds
1:35 PM 77.0 °F 60.8 °F 57% 30.04 in 10.0 mi SW 16.1 mph 23.0 mph N/A   Mostly Cloudy
1:55 PM 75.2 °F 60.8 °F 61% 30.04 in 10.0 mi SW 19.6 mph 26.5 mph N/A   Scattered Clouds
2:15 PM 75.2 °F 60.8 °F 61% 30.03 in 7.0 mi SSW 15.0 mph 21.9 mph N/A   Scattered Clouds
2:35 PM 75.2 °F 62.6 °F 65% 30.03 in 10.0 mi SSW 13.8 mph 18.4 mph N/A   Mostly Cloudy
2:55 PM 77.0 °F 62.6 °F 61% 30.02 in 7.0 mi SSW 13.8 mph 19.6 mph N/A   Mostly Cloudy
3:15 PM 75.2 °F 62.6 °F 65% 30.02 in 10.0 mi SSW 9.2 mph 18.4 mph N/A   Mostly Cloudy
3:35 PM 77.0 °F 62.6 °F 61% 30.02 in 7.0 mi SSW 10.4 mph - N/A   Scattered Clouds
3:55 PM 75.2 °F 62.6 °F 65% 30.02 in 10.0 mi SSW 12.7 mph 21.9 mph N/A   Clear
4:15 PM 75.2 °F 62.6 °F 65% 30.02 in 10.0 mi SSW 16.1 mph 20.7 mph N/A   Mostly Cloudy
4:35 PM 73.4 °F 62.6 °F 69% 30.02 in 10.0 mi SSW 12.7 mph 21.9 mph N/A   Scattered Clouds
4:55 PM 73.4 °F 62.6 °F 69% 30.02 in 7.0 mi South 15.0 mph 21.9 mph N/A   Clear
5:15 PM 73.4 °F 62.6 °F 69% 30.02 in 10.0 mi SSW 12.7 mph - N/A   Clear
5:35 PM 73.4 °F 62.6 °F 69% 30.03 in 10.0 mi SSW 13.8 mph 20.7 mph N/A   Clear
6:15 PM 71.6 °F 62.6 °F 73% 30.02 in 10.0 mi South 10.4 mph 16.1 mph N/A   Clear
6:55 PM 71.6 °F 62.6 °F 73% 30.04 in 10.0 mi SSW 11.5 mph - N/A   Scattered Clouds
7:15 PM 69.8 °F 64.4 °F 83% 30.03 in 10.0 mi SSW 9.2 mph - N/A   Scattered Clouds
7:35 PM 69.8 °F 64.4 °F 83% 30.02 in 10.0 mi South 10.4 mph - N/A   Clear
7:55 PM 69.8 °F 64.4 °F 83% 30.02 in 10.0 mi South 10.4 mph - N/A   Clear
8:35 PM 69.8 °F 64.4 °F 83% 30.01 in 10.0 mi SSW 10.4 mph - N/A   Clear
8:55 PM 69.8 °F 64.4 °F 83% 30.01 in 10.0 mi SSW 11.5 mph - N/A   Clear
9:15 PM 69.8 °F 64.4 °F 83% 30.02 in 10.0 mi SSW 12.7 mph 18.4 mph N/A   Clear
9:35 PM 69.8 °F 64.4 °F 83% 30.01 in 10.0 mi SSW 12.7 mph - N/A   Clear
9:55 PM 69.8 °F 62.6 °F 78% 30.01 in 10.0 mi SSW 12.7 mph - N/A   Clear
10:15 PM 69.8 °F 62.6 °F 78% 30.03 in 10.0 mi SSW 15.0 mph 24.2 mph N/A   Clear
10:35 PM 71.6 °F 62.6 °F 73% 30.04 in 7.0 mi SSW 17.3 mph 21.9 mph N/A   Clear
10:55 PM 71.6 °F 62.6 °F 73% 30.04 in 10.0 mi SW 15.0 mph 21.9 mph N/A   Scattered Clouds
11:15 PM 69.8 °F 62.6 °F 78% 30.04 in 10.0 mi South 11.5 mph 17.3 mph N/A   Scattered Clouds
11:35 PM 69.8 °F 62.6 °F 78% 30.04 in 10.0 mi SSW 11.5 mph 18.4 mph N/A   Clear
11:55 PM 69.8 °F 62.6 °F 78% 30.04 in 10.0 mi SSW 12.7 mph 17.3 mph N/A   Scattered Clouds